Grand Forks International Airport
KGFK : now visible

Airfield :











YOU CAN JOIN US ON...

 
LOGIN :

Register | Disclaimer

   EN    FR    IT 

 









Legend :    VFR   Marginal VFR   IFR   Intensive IFR   Very Intensive IFR
Visi :
Ceiling :
>= 8 km
>= 3000ft
5 to 8 km
1000 to 3000 ft
1500m to 5 km
500 to 1000 ft
800 to 1500m
200 to 500 ft
< 800m
< 200 ft
Symbols :   Thunderstorms  Fog  Heavy snow  Heavy precipitations  Wind > 20 kt







- Airport Elevation : 845 ft
- IATA code : GFK


KGFK - Grand Forks International

CURRENT METAR :
  • 191453Z 19007KT 10SM SCT085 OVC110 22/18 A2969 RMK AO2 SLP050 60001 T02170178 51015

EXPIRED METARs :
  • 191353Z 23008KT 10SM SCT075 OVC110 21/17 A2968 RMK AO2 RAE28 SLP047 P0000 T02110172
  • 191253Z 26009KT 10SM -RA BKN110 OVC140 21/17 A2967 RMK AO2 PK WND 24026/1211 SLP043 P0001 T02060172

TAF KGFK
Valid from the 19 at 12:00 until the 20 at 12:00 UTC


191139Z 1912/2012 22007KT P6SM VCSH BKN110
FM191400 26006KT P6SM BKN100
TEMPO 1914/1916 4SM -SHRA BR OVC025
FM191600 27005KT P6SM VCSH BKN100
FM192300 23007KT P6SM SCT120
KZMP FIR / North America



MET'MAP, your aeronautical weather chart ! - Copyright ORBIFLY December 2007 - Disclaimer

ORBIFLY MET'MAP TEAM :

Programming & Development : Alexandra Zaïnal
Concept & Development : Baudouin d'Aumeries
Co-Development & Prog : Marc-Olivier Méhu
Technical & hardware support : Manuel Goepfert

Contact : metmap@orbifly.com




SOURCES & CREDITS :

   NOAA       Earth
Advisory